This is the latest recevied weather packets stored in our database for station/object KE8AFF-13. If no packets are shown the sender has not sent any weather packets the latest 1 day(s).
| Time | Temp. | Humidity | Pressure | Rain* | Wind** | Luminosity | Snow |
|---|---|---|---|---|---|---|---|
| 1778042623 | 7.78° C | 99% | 1008.4 hPa | 0 mm | - | 0 W/m² | - |
| 1778042320 | 7.78° C | 99% | 1008.3 hPa | 0.51 mm | - | 0 W/m² | - |
| 1778042017 | 7.78° C | 99% | 1008.2 hPa | 0.51 mm | - | 0 W/m² | - |
| 1778041113 | 7.78° C | 99% | 1007.8 hPa | 1.78 mm | - | 0 W/m² | - |
| 1778040809 | 7.78° C | 99% | 1007.6 hPa | 1.27 mm | - | 0 W/m² | - |
| 1778040506 | 7.78° C | 99% | 1007.8 hPa | 0.51 mm | - | 0 W/m² | - |
| 1778040204 | 7.78° C | 99% | 1007.5 hPa | 1.27 mm | - | 0 W/m² | - |
| 1778039900 | 7.78° C | 99% | 1007.6 hPa | 0.51 mm | - | 0 W/m² | - |
| 1778038992 | 7.78° C | 99% | 1007.7 hPa | 2.29 mm | - | 0 W/m² | - |
| 1778038689 | 7.78° C | 99% | 1007.8 hPa | 1.78 mm | - | 0 W/m² | - |
| 1778038386 | 7.78° C | 99% | 1008 hPa | 0.51 mm | - | 0 W/m² | - |
| 1778038082 | 7.78° C | 99% | 1007.9 hPa | 0.51 mm | - | 0 W/m² | - |
| 1778037779 | 7.78° C | 99% | 1008.1 hPa | 1.27 mm | - | 0 W/m² | - |
| 1778037173 | 8.33° C | 99% | 1008.1 hPa | 1.78 mm | - | 0 W/m² | - |
| 1778036871 | 8.33° C | 99% | 1008.5 hPa | 2.29 mm | - | 0 W/m² | - |
| 1778036569 | 8.33° C | 99% | 1008.7 hPa | 3.05 mm | - | 0 W/m² | - |
| 1778036265 | 8.33° C | 99% | 1008.5 hPa | 3.05 mm | - | 0 W/m² | - |
| 1778035962 | 8.33° C | 99% | 1008.6 hPa | 1.78 mm | - | 0 W/m² | - |
| 1778035659 | 8.33° C | 99% | 1008.6 hPa | 1.27 mm | - | 0 W/m² | - |
| 1778034749 | 8.33° C | 99% | 1009 hPa | 1.27 mm | - | 0 W/m² | - |
| 1778034445 | 8.33° C | 99% | 1008.9 hPa | 1.27 mm | - | 0 W/m² | - |
| 1778034143 | 8.33° C | 99% | 1008.8 hPa | 1.78 mm | - | 0 W/m² | - |
| 1778033841 | 8.33° C | 99% | 1009.1 hPa | 3.05 mm | - | 0 W/m² | - |
| 1778033539 | 8.33° C | 99% | 1008.6 hPa | 2.29 mm | - | 0 W/m² | - |
| 1778032933 | 8.89° C | 99% | 1008.8 hPa | 3.05 mm | - | 0 W/m² | - |
* Rain latest hour (hover to see other rain measurements)
** Current wind speed in m/s (hover to see current wind gust speed)